[[{"header":{"parameterUnit":"m.s-1","parameterCategory":1,"la1":30.2991,"la2":30.254,"lo1":-89.0895,"lo2":-89.0444,"dy":0.0017,"dx":0.0017,"nx":28,"ny":28,"refTime":"2024-12-16T09:00:00:Z","depth":0,"parameterNumber":2,"parameterNumberName":"U-component_of_WINDS"},"data":[0,0,0,0,0,0,0,0,0,0,0,0,0,0,0,0,0,0,0,0,0,0,0,0,0,0,0,0,0,0,0,0,0,0,0,0,0,0,0,0,0,0,0,0,0,0,0,0,0,0,0,0,0,0,0,0,0,0,-3.6631,-3.6631,0,-3.6587,-3.6586,-3.6586,-3.6513,-3.6511,-3.651,-3.6509,-3.6463,-3.6464,-3.6464,0,0,0,0,0,0,0,0,0,0,0,0,0,-3.6654,-3.6654,-3.6631,-3.6631,-3.663,-3.6587,-3.6586,-3.6586,-3.6513,-3.6511,-3.651,-3.6508,-3.6463,-3.6464,-3.6464,0,0,0,0,0,0,0,0,0,0,0,0,0,-3.6631,-3.6654,-3.6631,-3.6589,-3.6584,-3.6587,-3.6586,-3.6585,-3.6513,-3.6511,-3.6509,-3.6507,-3.6463,-3.6464,-3.6464,-3.6504,0,0,-3.6464,-3.6464,0,0,0,0,0,0,0,0,-3.6632,-3.663,-3.6595,-3.6592,-3.6587,-3.6553,-3.6578,-3.6558,-3.6514,-3.654,-3.6509,-3.6506,-3.6495,-3.6492,-3.6488,-3.6502,-3.65,-3.6464,-3.6464,-3.6464,-3.6464,0,0,0,0,0,0,0,-3.6634,-3.6631,-3.6614,-3.6595,-3.659,-3.6572,-3.6566,-3.6574,-3.6529,-3.6538,-3.6532,-3.6528,-3.6492,-3.6489,-3.6487,-3.65,-3.6464,-3.6464,-3.6464,-3.6464,-3.6545,-3.6547,0,0,0,0,0,0,-3.6642,-3.6633,-3.6615,-3.6612,-3.6605,-3.6573,-3.6567,-3.6566,-3.6529,-3.6522,-3.653,-3.6525,-3.6489,-3.6487,-3.6485,-3.653,-3.6464,-3.6464,-3.6464,-3.6543,-3.6546,-3.6548,0,0,0,0,0,0,-3.6642,-3.6641,-3.6617,-3.6621,-3.6617,-3.6575,-3.6575,-3.6566,-3.6562,-3.6523,-3.6515,-3.6534,-3.6488,-3.6485,-3.65,-3.6528,-3.6464,-3.6464,-3.654,-3.6544,-3.6547,-3.6621,0,0,0,0,0,0,-3.6643,-3.6641,-3.6656,-3.6622,-3.6617,-3.6633,-3.6576,-3.6567,-3.6563,-3.6556,-3.6525,-3.6518,-3.6486,-3.65,-3.65,-3.6527,-3.6464,-3.6538,-3.6542,-3.6546,-3.6616,-3.6627,-3.6635,0,0,0,0,0,-3.6644,-3.6679,-3.6657,-3.6655,-3.6634,-3.6634,-3.6631,-3.6594,-3.6565,-3.658,-3.6555,-3.6519,-3.6525,-3.6503,-3.6502,-3.6529,-3.6536,-3.6541,-3.6545,-3.6612,-3.6624,-3.6635,0,0,0,0,0,0,-3.6717,-3.6673,-3.6649,-3.6673,-3.6658,-3.6622,-3.6639,-3.6608,-3.6601,-3.6594,-3.6548,-3.6542,-3.6563,-3.6547,-3.6523,-3.6566,-3.6525,-3.653,-3.6576,-3.6587,-3.6597,-3.66,-3.6464,0,0,0,0,0,-3.6736,-3.6739,-3.6701,-3.6726,-3.672,-3.6681,-3.668,-3.6652,-3.6634,-3.6628,-3.6604,-3.6588,-3.6586,-3.6586,-3.6582,-3.6614,-3.6606,-3.6632,-3.6642,-3.665,-3.6654,-3.667,-3.6681,-3.6563,-3.6563,-3.6563,0,0,-3.6774,-3.6751,-3.6756,-3.674,-3.6725,-3.673,-3.6676,-3.6683,-3.6686,-3.6629,-3.6641,-3.6624,-3.6603,-3.6627,-3.6636,-3.6615,-3.6685,-3.6656,-3.6663,-3.6663,-3.6676,-3.6687,-3.6697,-3.6567,-3.6566,-3.6566,0,0,-3.6847,-3.683,-3.6849,-3.6836,-3.6814,-3.6788,-3.6793,-3.6762,-3.6748,-3.676,-3.6717,-3.672,-3.6718,-3.6706,-3.6699,-3.6769,-3.6736,-3.6769,-3.6819,-3.6836,-3.6845,-3.6853,-3.6878,-3.6887,-3.6774,-3.6774,-3.6774,0,-3.6898,-3.6903,-3.6863,-3.6873,-3.6868,-3.6816,-3.6836,-3.6824,-3.6802,-3.68,-3.6776,-3.6773,-3.6756,-3.6776,-3.6793,-3.679,-3.6794,-3.6772,-3.6847,-3.6854,-3.6861,-3.6884,-3.6894,-3.6778,-3.6778,-3.6777,-3.6777,0,-3.6967,-3.6972,-3.699,-3.697,-3.6967,-3.6982,-3.6944,-3.6946,-3.6919,-3.6896,-3.691,-3.6887,-3.6879,-3.6882,-3.6855,-3.6898,-3.6886,-3.6855,-3.6812,-3.6877,-3.6898,-3.6907,-3.6784,-3.6783,-3.6782,-3.6781,0,0,-3.7083,-3.7042,-3.7049,-3.704,-3.7013,-3.7015,-3.7029,-3.702,-3.7022,-3.7009,-3.7019,-3.7019,-3.6991,-3.6984,-3.6956,-3.697,-3.7027,-3.6938,-3.6937,-3.6955,-3.7074,-3.7096,-3.7107,-3.7006,-3.7007,-3.7008,-3.7075,0,-3.715,-3.7169,-3.7134,-3.7162,-3.7166,-3.7118,-3.7129,-3.7114,-3.7093,-3.7094,-3.7071,-3.7072,-3.7034,-3.703,-3.7042,-3.7018,-3.705,-3.7013,-3.7014,-3.7015,-3.702,-3.7118,-3.7142,-3.7206,-3.7083,-3.7085,-3.7086,0,-3.723,-3.7222,-3.725,-3.7222,-3.7222,-3.7233,-3.7222,-3.7224,-3.7206,-3.719,-3.7183,-3.715,-3.7161,-3.7121,-3.7136,-3.7111,-3.711,-3.7098,-3.71,-3.7098,-3.7054,-3.7119,-3.7226,-3.7235,-3.7098,-3.7097,-3.7096,0,-3.7312,-3.7307,-3.7324,-3.7317,-3.7285,-3.7294,-3.7281,-3.7261,-3.7258,-3.7249,-3.7247,-3.724,-3.7236,-3.7232,-3.7199,-3.7172,-3.7218,-3.7175,-3.7205,-3.7206,-3.7216,-3.7215,-3.7324,-3.7216,-3.7216,-3.7216,-3.7216,0,-3.739,-3.7409,-3.736,-3.737,-3.739,-3.735,-3.7372,-3.7354,-3.7337,-3.7343,-3.7301,-3.7308,-3.7264,-3.7266,-3.724,-3.7256,-3.7255,-3.7242,-3.7235,-3.7246,-3.7247,-3.7244,-3.7238,-3.7218,-3.7218,-3.7217,-3.7217,0,-3.7484,-3.7452,-3.7466,-3.7435,-3.7427,-3.7444,-3.7417,-3.7425,-3.7402,-3.7411,-3.741,-3.7375,-3.7375,-3.7342,-3.7335,-3.7318,-3.7345,-3.733,-3.7351,-3.7346,-3.7378,-3.7376,-3.7487,-3.75,-3.7385,-3.7387,-3.7387,0,-3.7535,-3.7549,-3.7519,-3.752,-3.7509,-3.7511,-3.7509,-3.747,-3.7469,-3.7451,-3.7461,-3.7458,-3.7454,-3.7457,-3.743,-3.7425,-3.741,-3.7449,-3.7409,-3.7419,-3.741,-3.7409,-3.741,-3.7458,-3.7459,-3.746,-3.7461,0,-3.763,-3.7614,-3.7611,-3.7604,-3.7602,-3.7594,-3.7584,-3.7587,-3.7545,-3.7546,-3.7546,-3.7543,-3.7537,-3.7534,-3.7525,-3.7511,-3.748,-3.7474,-3.7481,-3.7492,-3.7503,-3.7497,-3.7374,-3.7472,-3.7471,-3.747,-3.7469,-3.7469,-3.7704,-3.7714,-3.7695,-3.7694,-3.7682,-3.7674,-3.768,-3.7658,-3.7658,-3.7649,-3.7627,-3.7631,-3.7614,-3.7597,-3.7587,-3.759,-3.757,-3.758,-3.7582,-3.7585,-3.7591,-3.7504,-3.7588,-3.7588,-3.7587,-3.7587,-3.7587,0,-3.7796,-3.7782,-3.7781,-3.7768,-3.7768,-3.7738,-3.7726,-3.7727,-3.7731,-3.7718,-3.7714,-3.7715,-3.7713,-3.7687,-3.7682,-3.7689,-3.7674,-3.7689,-3.7687,-3.7685,-3.7609,-3.7604,-3.7701,-3.7701,-3.7701,-3.7701,-3.7701,-3.7701,-3.7844,-3.786,-3.7842,-3.7851,-3.7837,-3.784,-3.7835,-3.7828,-3.7817,-3.7819,-3.7817,-3.78,-3.7782,-3.7775,-3.7772,-3.7765,-3.7765,-3.7784,-3.7772,-3.7701,-3.769,-3.768,-3.7674,-3.7785,-3.7785,-3.7847,-3.7848,-3.7848]},{"header":{"parameterUnit":"m.s-1","parameterCategory":1,"la1":30.2991,"la2":30.254,"lo1":-89.0895,"lo2":-89.0444,"dy":0.0017,"dx":0.0017,"nx":28,"ny":28,"refTime":"2024-12-16T09:00:00:Z","depth":0,"parameterNumber":3,"parameterNumberName":"V-component_of_WINDS"},"data":[0,0,0,0,0,0,0,0,0,0,0,0,0,0,0,0,0,0,0,0,0,0,0,0,0,0,0,0,0,0,0,0,0,0,0,0,0,0,0,0,0,0,0,0,0,0,0,0,0,0,0,0,0,0,0,0,0,0,1.003,1.003,0,1.0096,1.0097,1.0098,1.0169,1.017,1.0171,1.0172,1.0237,1.0238,1.0239,0,0,0,0,0,0,0,0,0,0,0,0,0,0.9965,0.9965,1.003,1.003,1.0031,1.0096,1.0097,1.0098,1.0169,1.017,1.0171,1.0173,1.0237,1.0238,1.0239,0,0,0,0,0,0,0,0,0,0,0,0,0,1.0008,0.9966,1.0029,1.0075,1.0079,1.0096,1.0097,1.0098,1.0169,1.017,1.0172,1.0173,1.0237,1.0238,1.0239,1.0215,0,0,1.0242,1.0243,0,0,0,0,0,0,0,0,1.0005,1.001,1.0067,1.0072,1.0077,1.0126,1.0098,1.0137,1.0168,1.0135,1.0172,1.0174,1.0199,1.0203,1.0212,1.0218,1.0221,1.0243,1.0243,1.0244,1.0244,0,0,0,0,0,0,0,1.0002,1.0008,1.0056,1.0068,1.0074,1.0092,1.01,1.0106,1.0157,1.0138,1.0143,1.015,1.0202,1.0211,1.0214,1.0222,1.0243,1.0244,1.0244,1.0245,1.0216,1.0215,0,0,0,0,0,0,0.9993,1.0005,1.0054,1.0058,1.0044,1.0092,1.01,1.0109,1.0157,1.0166,1.0149,1.0153,1.0208,1.0213,1.0217,1.0195,1.0244,1.0245,1.0246,1.0217,1.0216,1.0214,0,0,0,0,0,0,0.9991,0.9996,1.0051,1.0033,1.0041,1.0091,1.01,1.0109,1.0118,1.0166,1.0175,1.0149,1.0209,1.0215,1.0216,1.0198,1.0245,1.0246,1.0219,1.0217,1.0215,1.0149,0,0,0,0,0,0,0.9989,0.9995,0.9986,1.0032,1.0042,1.0049,1.0099,1.0109,1.012,1.0127,1.0168,1.0176,1.0211,1.0214,1.0217,1.02,1.0247,1.0221,1.0218,1.0216,1.0153,1.0145,1.0138,0,0,0,0,0,0.9986,0.9964,0.9986,0.9991,1.0032,1.0048,1.0054,1.0095,1.0119,1.0111,1.0142,1.0175,1.0199,1.0214,1.0218,1.0201,1.0222,1.0219,1.0216,1.0156,1.0146,1.0138,0,0,0,0,0,0,0.9913,0.997,0.9995,0.9987,1.0012,1.006,1.0051,1.0082,1.01,1.0105,1.0155,1.0164,1.016,1.018,1.0195,1.0183,1.0216,1.0213,1.0169,1.016,1.0153,1.0148,1.0248,0,0,0,0,0,0.9896,0.9905,0.9954,0.9942,0.9954,1.0,1.0008,1.0039,1.0066,1.0077,1.0108,1.0133,1.0147,1.0154,1.0169,1.0156,1.0168,1.0147,1.014,1.0133,1.013,1.0128,1.0121,1.0203,1.0203,1.0203,0,0,0.9861,0.9893,0.9895,0.9929,0.9952,0.996,1.0008,1.0014,1.0021,1.0077,1.0081,1.0105,1.0136,1.0131,1.013,1.0148,1.011,1.0129,1.0123,1.0124,1.0124,1.0116,1.0109,1.0201,1.0201,1.0202,0,0,0.9801,0.9826,0.9821,0.9843,0.9879,0.991,0.9909,0.9952,0.9971,0.9976,1.002,1.0028,1.005,1.0072,1.0085,1.0038,1.007,1.0041,1.0001,0.9999,0.9992,0.9987,0.9972,0.9966,1.0038,1.0038,1.0038,0,0.9753,0.9767,0.9813,0.9818,0.9832,0.9885,0.9881,0.99,0.9938,0.9947,0.9966,0.9998,1.0022,1.0024,1.0013,1.0022,1.0023,1.0037,0.9989,0.9984,0.998,0.9967,0.9961,1.0034,1.0035,1.0035,1.0035,0,0.9707,0.9717,0.9708,0.9746,0.9759,0.9758,0.9805,0.9812,0.9842,0.9872,0.9877,0.9909,0.9933,0.9936,0.9963,0.9943,0.9953,0.998,1.0015,0.9968,0.9956,0.9951,1.0029,1.003,1.0032,1.0032,0,0,0.9602,0.9668,0.9664,0.9683,0.9727,0.9735,0.9738,0.9763,0.977,0.9794,0.9799,0.9818,0.9845,0.986,0.9891,0.9888,0.9852,0.9917,0.9918,0.9905,0.9834,0.9815,0.9808,0.9874,0.9873,0.9872,0.9832,0,0.9552,0.9562,0.9604,0.9601,0.9612,0.9664,0.9667,0.9695,0.9723,0.9736,0.9767,0.9781,0.9814,0.9824,0.9824,0.9856,0.9839,0.986,0.9879,0.988,0.9871,0.9801,0.978,0.9741,0.9828,0.9827,0.9826,0,0.9494,0.9518,0.9516,0.9564,0.957,0.9571,0.96,0.9611,0.9644,0.9665,0.9684,0.972,0.9727,0.9759,0.9771,0.9784,0.9795,0.9812,0.9812,0.9816,0.9851,0.9805,0.9729,0.9724,0.9819,0.982,0.982,0,0.9421,0.9452,0.9456,0.947,0.9524,0.9525,0.9548,0.9582,0.9596,0.962,0.963,0.9654,0.9667,0.9685,0.9727,0.9746,0.9734,0.9769,0.9753,0.9752,0.9749,0.9748,0.9675,0.9753,0.9753,0.9753,0.9753,0,0.9361,0.9358,0.9424,0.9427,0.9426,0.9476,0.9474,0.9501,0.9533,0.9542,0.9588,0.9595,0.965,0.9664,0.9696,0.9702,0.9707,0.9725,0.9734,0.9722,0.972,0.973,0.9735,0.9751,0.9752,0.9752,0.9752,0,0.9278,0.9322,0.9331,0.9383,0.9396,0.9393,0.9438,0.9443,0.9475,0.9486,0.9492,0.9542,0.9561,0.9605,0.9635,0.9657,0.9656,0.967,0.9645,0.9651,0.9633,0.9635,0.9564,0.9558,0.9638,0.9637,0.9637,0,0.9238,0.9238,0.9291,0.9301,0.9322,0.9338,0.9353,0.9402,0.9416,0.9455,0.9456,0.9479,0.9501,0.9529,0.9568,0.9593,0.961,0.9583,0.9614,0.9602,0.9612,0.9612,0.9613,0.9577,0.9576,0.9575,0.9574,0,0.9163,0.9185,0.9205,0.9234,0.9251,0.9275,0.9301,0.9307,0.9363,0.9376,0.9397,0.9414,0.9447,0.947,0.9501,0.9525,0.9559,0.9564,0.9563,0.9551,0.9537,0.9546,0.9628,0.9566,0.9567,0.9567,0.9568,0.9568,0.9102,0.9105,0.9144,0.9166,0.9191,0.9216,0.9224,0.9259,0.9278,0.9309,0.9337,0.9357,0.9392,0.9438,0.9459,0.9475,0.9492,0.9488,0.9488,0.9487,0.9483,0.9533,0.9481,0.9481,0.9481,0.9482,0.9482,0,0.9031,0.9059,0.9078,0.9116,0.9133,0.9165,0.9197,0.921,0.9227,0.9258,0.9279,0.9305,0.9328,0.937,0.9398,0.9403,0.942,0.9408,0.9409,0.9415,0.9465,0.9465,0.9395,0.9395,0.9395,0.9395,0.9395,0.9395,0.8996,0.9005,0.9032,0.9055,0.9083,0.9104,0.912,0.9143,0.9169,0.9196,0.9217,0.9244,0.928,0.9311,0.9335,0.9347,0.9355,0.934,0.9356,0.9403,0.9411,0.9419,0.9419,0.9341,0.9341,0.9306,0.9305,0.9305]}]]